[[{"header":{"parameterUnit":"m.s-1","parameterCategory":1,"la1":30.2991,"la2":30.254,"lo1":-89.0895,"lo2":-89.0444,"dy":0.0017,"dx":0.0017,"nx":28,"ny":28,"refTime":"2025-04-20T03:00:00:Z","depth":0,"parameterNumber":2,"parameterNumberName":"U-component_of_WINDS"},"data":[0,0,0,0,0,0,0,0,0,0,0,0,0,0,0,0,0,0,0,0,0,0,0,0,0,0,0,0,0,0,0,0,0,0,0,0,0,0,0,0,0,0,0,0,0,0,0,0,0,0,0,0,0,0,0,0,0,0,-5.849,-5.8491,0,-5.8546,-5.8547,-5.8547,-5.8472,-5.8469,-5.8467,-5.8464,-5.8518,-5.8522,-5.8526,0,0,0,0,0,0,0,0,0,0,0,0,0,-5.8315,-5.8319,-5.849,-5.8491,-5.8492,-5.8546,-5.8547,-5.8548,-5.8473,-5.8469,-5.8466,-5.8463,-5.8517,-5.8521,-5.8526,0,0,0,0,0,0,0,0,0,0,0,0,0,-5.8383,-5.832,-5.849,-5.8461,-5.8459,-5.8546,-5.8547,-5.8548,-5.8473,-5.8469,-5.8465,-5.8461,-5.8515,-5.8521,-5.8527,-5.8644,0,0,-5.8545,-5.8547,0,0,0,0,0,0,0,0,-5.8379,-5.839,-5.8464,-5.8463,-5.8461,-5.8498,-5.8505,-5.858,-5.8474,-5.8468,-5.8464,-5.8459,-5.8514,-5.852,-5.8539,-5.8647,-5.8649,-5.8545,-5.8549,-5.8551,-5.8553,0,0,0,0,0,0,0,-5.8375,-5.8387,-5.8512,-5.8466,-5.8463,-5.8444,-5.8449,-5.8519,-5.8513,-5.8468,-5.8463,-5.8471,-5.8513,-5.8534,-5.854,-5.865,-5.8545,-5.855,-5.8554,-5.8556,-5.8855,-5.8859,0,0,0,0,0,0,-5.8374,-5.8383,-5.851,-5.8514,-5.841,-5.845,-5.8456,-5.849,-5.8512,-5.8511,-5.8474,-5.8467,-5.8526,-5.8533,-5.8542,-5.8679,-5.8551,-5.8557,-5.856,-5.8851,-5.8856,-5.8861,0,0,0,0,0,0,-5.8371,-5.8386,-5.8508,-5.8447,-5.8461,-5.8458,-5.8496,-5.8493,-5.8514,-5.8517,-5.8515,-5.8497,-5.8523,-5.8533,-5.8619,-5.868,-5.856,-5.8565,-5.8846,-5.8852,-5.8858,-5.8956,0,0,0,0,0,0,-5.8366,-5.8385,-5.843,-5.8449,-5.8465,-5.8586,-5.85,-5.8497,-5.8525,-5.8517,-5.8538,-5.8537,-5.8521,-5.8611,-5.8625,-5.8686,-5.857,-5.884,-5.8849,-5.8856,-5.8948,-5.8966,-5.8981,0,0,0,0,0,-5.836,-5.8455,-5.8433,-5.8449,-5.8521,-5.8589,-5.8598,-5.8578,-5.8531,-5.8575,-5.8577,-5.8536,-5.8672,-5.862,-5.8636,-5.8699,-5.8836,-5.8846,-5.8856,-5.894,-5.8962,-5.8981,0,0,0,0,0,0,-5.8442,-5.8457,-5.8433,-5.8537,-5.8563,-5.8577,-5.8632,-5.8602,-5.8641,-5.8631,-5.8604,-5.8609,-5.8701,-5.8709,-5.8651,-5.8814,-5.8746,-5.8759,-5.8805,-5.8826,-5.8842,-5.8837,-5.8575,0,0,0,0,0,-5.8473,-5.8528,-5.8538,-5.8629,-5.8643,-5.8636,-5.8665,-5.8648,-5.8672,-5.8683,-5.869,-5.8715,-5.8763,-5.8795,-5.8839,-5.8949,-5.8952,-5.9001,-5.9018,-5.9031,-5.9042,-5.91,-5.9121,-5.8893,-5.8893,-5.8893,0,0,-5.8536,-5.8551,-5.8587,-5.8646,-5.8663,-5.872,-5.8645,-5.8708,-5.875,-5.8692,-5.8773,-5.878,-5.8806,-5.8904,-5.8948,-5.8914,-5.9106,-5.9044,-5.9055,-5.9058,-5.9112,-5.9134,-5.9153,-5.89,-5.8899,-5.8898,0,0,-5.868,-5.8697,-5.8775,-5.8795,-5.8823,-5.8818,-5.8837,-5.8856,-5.8859,-5.8941,-5.8898,-5.8947,-5.903,-5.905,-5.9071,-5.9224,-5.9188,-5.924,-5.9325,-5.9382,-5.94,-5.9416,-5.9469,-5.9488,-5.9251,-5.9252,-5.9252,0,-5.8754,-5.8838,-5.8818,-5.8884,-5.8911,-5.8863,-5.894,-5.896,-5.9002,-5.902,-5.8982,-5.9087,-5.9101,-5.9202,-5.924,-5.926,-5.9279,-5.9236,-5.9399,-5.9415,-5.9429,-5.9479,-5.95,-5.9258,-5.9257,-5.9256,-5.9256,0,-5.8928,-5.8987,-5.9046,-5.9089,-5.9122,-5.9194,-5.9183,-5.9219,-5.92,-5.9198,-5.9282,-5.9298,-5.9344,-5.9367,-5.9348,-5.9467,-5.9445,-5.9404,-5.9334,-5.9457,-5.9504,-5.9523,-5.9266,-5.9264,-5.9262,-5.9261,0,0,-5.9122,-5.9154,-5.9176,-5.9194,-5.9223,-5.9268,-5.9337,-5.9384,-5.9415,-5.9446,-5.9502,-5.9575,-5.9537,-5.9562,-5.9545,-5.9595,-5.9713,-5.9547,-5.9547,-5.9576,-5.9843,-5.9872,-5.9895,-5.9691,-5.9694,-5.9697,-5.984,0,-5.9264,-5.9385,-5.9369,-5.9485,-5.9539,-5.9495,-5.9555,-5.9579,-5.958,-5.9625,-5.9626,-5.9677,-5.9625,-5.9639,-5.9687,-5.9689,-5.9766,-5.9679,-5.9741,-5.9743,-5.9734,-5.9919,-5.995,-6.0084,-5.9858,-5.9862,-5.9864,0,-5.9446,-5.9484,-5.9606,-5.9626,-5.9648,-5.9703,-5.9744,-5.9789,-5.9815,-5.9812,-5.984,-5.9814,-5.9883,-5.9815,-5.9908,-5.9848,-5.9873,-5.9878,-5.9883,-5.9886,-5.9809,-5.9925,-6.0127,-6.0146,-5.9893,-5.989,-5.9888,0,-5.9573,-5.9656,-5.9739,-5.9756,-5.9783,-5.9822,-5.9835,-5.9857,-5.9886,-5.9923,-5.9941,-5.9985,-6.0008,-6.0042,-6.0029,-5.998,-6.0124,-6.0055,-6.0122,-6.0122,-6.0152,-6.015,-6.0358,-6.0172,-6.0172,-6.0172,-6.0171,0,-5.9732,-5.9808,-5.9796,-5.9847,-5.993,-5.9911,-5.9994,-6.0001,-6.0021,-6.0072,-6.0037,-6.0085,-6.0066,-6.0112,-6.0102,-6.018,-6.0191,-6.019,-6.0186,-6.0192,-6.0192,-6.0206,-6.0195,-6.0177,-6.0176,-6.0175,-6.0174,0,-5.9888,-5.9883,-5.9971,-5.999,-5.9996,-6.0056,-6.0072,-6.0119,-6.0118,-6.0183,-6.0197,-6.0195,-6.0248,-6.0239,-6.0298,-6.0291,-6.0388,-6.0373,-6.0379,-6.0375,-6.0442,-6.0435,-6.0665,-6.0693,-6.0491,-6.0493,-6.0495,0,-5.9988,-6.0046,-6.0071,-6.0103,-6.0119,-6.0171,-6.0201,-6.0185,-6.0218,-6.0252,-6.0295,-6.0346,-6.0385,-6.0472,-6.0475,-6.0519,-6.0504,-6.0582,-6.0511,-6.0515,-6.0503,-6.0499,-6.0504,-6.0595,-6.0598,-6.0599,-6.0601,0,-6.0167,-6.0162,-6.0208,-6.0253,-6.029,-6.0324,-6.0355,-6.0383,-6.037,-6.0408,-6.0462,-6.0493,-6.0554,-6.0603,-6.0645,-6.0657,-6.0627,-6.0624,-6.0641,-6.0647,-6.0647,-6.0646,-6.0415,-6.0618,-6.0616,-6.0615,-6.0614,-6.0613,-6.0297,-6.0345,-6.0371,-6.0423,-6.0445,-6.0474,-6.052,-6.0525,-6.0571,-6.0619,-6.0607,-6.0669,-6.0693,-6.0747,-6.0763,-6.0811,-6.0782,-6.0807,-6.0814,-6.082,-6.0827,-6.0642,-6.0818,-6.0818,-6.0817,-6.0817,-6.0817,0,-6.0472,-6.0487,-6.0535,-6.0579,-6.062,-6.059,-6.0623,-6.0658,-6.0713,-6.0739,-6.0779,-6.0842,-6.089,-6.0898,-6.0944,-6.098,-6.0968,-6.0993,-6.0989,-6.0992,-6.0851,-6.0831,-6.1002,-6.1002,-6.1002,-6.1002,-6.1002,-6.1002,-6.0568,-6.0648,-6.0647,-6.0738,-6.0751,-6.0812,-6.0833,-6.086,-6.0881,-6.0953,-6.0994,-6.0999,-6.1018,-6.1065,-6.1108,-6.1109,-6.1126,-6.1157,-6.1152,-6.102,-6.1002,-6.0984,-6.0964,-6.1161,-6.1162,-6.1289,-6.129,-6.1291]},{"header":{"parameterUnit":"m.s-1","parameterCategory":1,"la1":30.2991,"la2":30.254,"lo1":-89.0895,"lo2":-89.0444,"dy":0.0017,"dx":0.0017,"nx":28,"ny":28,"refTime":"2025-04-20T03:00:00:Z","depth":0,"parameterNumber":3,"parameterNumberName":"V-component_of_WINDS"},"data":[0,0,0,0,0,0,0,0,0,0,0,0,0,0,0,0,0,0,0,0,0,0,0,0,0,0,0,0,0,0,0,0,0,0,0,0,0,0,0,0,0,0,0,0,0,0,0,0,0,0,0,0,0,0,0,0,0,0,5.3452,5.3452,0,5.3515,5.3515,5.3516,5.3479,5.3477,5.3476,5.3474,5.3533,5.3536,5.3539,0,0,0,0,0,0,0,0,0,0,0,0,0,5.3294,5.3297,5.3452,5.3452,5.3453,5.3515,5.3515,5.3516,5.3479,5.3477,5.3475,5.3473,5.3532,5.3535,5.3539,0,0,0,0,0,0,0,0,0,0,0,0,0,5.336,5.3299,5.3451,5.3442,5.3442,5.3514,5.3516,5.3517,5.348,5.3477,5.3475,5.3472,5.353,5.3535,5.354,5.3623,0,0,5.3554,5.3557,0,0,0,0,0,0,0,0,5.3357,5.3366,5.3443,5.3443,5.3443,5.3487,5.3482,5.3552,5.3481,5.3465,5.3474,5.3471,5.3519,5.3525,5.3542,5.3625,5.3628,5.3555,5.3558,5.356,5.3561,0,0,0,0,0,0,0,5.3352,5.3363,5.3476,5.3444,5.3444,5.3434,5.344,5.3495,5.3506,5.3467,5.3464,5.3472,5.3518,5.3538,5.3543,5.3629,5.3555,5.3559,5.3562,5.3564,5.3784,5.3787,0,0,0,0,0,0,5.3349,5.336,5.3474,5.3478,5.3393,5.3439,5.3446,5.3475,5.3506,5.3508,5.3475,5.347,5.3531,5.3538,5.3545,5.3645,5.356,5.3564,5.3567,5.3781,5.3785,5.3788,0,0,0,0,0,0,5.3346,5.336,5.3472,5.3418,5.3432,5.3444,5.3477,5.3478,5.3497,5.3512,5.3513,5.3492,5.3529,5.3538,5.3604,5.3646,5.3566,5.3571,5.3778,5.3782,5.3786,5.3844,0,0,0,0,0,0,5.3341,5.3359,5.3391,5.342,5.3435,5.3532,5.348,5.3481,5.3506,5.3501,5.3529,5.353,5.3527,5.3597,5.3609,5.3651,5.3575,5.3774,5.378,5.3785,5.3838,5.385,5.386,0,0,0,0,0,5.3336,5.3404,5.3393,5.3407,5.3476,5.3534,5.3543,5.3539,5.3509,5.3542,5.3551,5.353,5.364,5.3604,5.3617,5.3662,5.3771,5.3778,5.3784,5.3834,5.3848,5.386,0,0,0,0,0,0,5.3377,5.3407,5.3396,5.3475,5.3503,5.3528,5.3568,5.3554,5.3589,5.3583,5.3576,5.3582,5.3651,5.3663,5.3623,5.3744,5.3701,5.371,5.3734,5.3747,5.3758,5.3753,5.3579,0,0,0,0,0,5.3396,5.3442,5.3465,5.3532,5.3547,5.3556,5.358,5.3576,5.3603,5.3614,5.3629,5.3655,5.3695,5.3722,5.376,5.384,5.3846,5.3877,5.3888,5.3897,5.3905,5.3948,5.3963,5.381,5.381,5.381,0,0,5.3434,5.3456,5.3485,5.3541,5.3562,5.3609,5.3565,5.3616,5.365,5.3621,5.3685,5.3697,5.3725,5.3799,5.3832,5.3811,5.3948,5.3905,5.3912,5.3915,5.3957,5.3971,5.3984,5.3814,5.3813,5.3813,0,0,5.3528,5.3549,5.3609,5.3631,5.3664,5.367,5.3684,5.3712,5.372,5.3784,5.3764,5.3803,5.3873,5.3895,5.3915,5.4019,5.4,5.4032,5.4087,5.413,5.4142,5.4152,5.4189,5.4203,5.404,5.404,5.404,0,5.357,5.3642,5.364,5.3693,5.3718,5.3697,5.3756,5.3778,5.3821,5.3838,5.3814,5.3903,5.392,5.3999,5.4025,5.4042,5.4057,5.4028,5.4141,5.4151,5.4161,5.4196,5.421,5.4043,5.4043,5.4043,5.4042,0,5.3693,5.3742,5.3786,5.3831,5.3861,5.3917,5.3922,5.3953,5.3946,5.3954,5.402,5.4041,5.4083,5.4102,5.4094,5.418,5.4166,5.4142,5.4098,5.4179,5.4212,5.4226,5.4049,5.4047,5.4046,5.4045,0,0,5.3812,5.3858,5.3874,5.3894,5.393,5.3968,5.4023,5.4067,5.4093,5.4123,5.4169,5.4229,5.4208,5.4231,5.4226,5.4264,5.4345,5.4235,5.4235,5.4254,5.4441,5.4458,5.4474,5.4334,5.4336,5.4338,5.4438,0,5.3908,5.4006,5.4007,5.4097,5.4142,5.4124,5.4172,5.4198,5.4207,5.4246,5.4255,5.4299,5.4267,5.4281,5.4318,5.4328,5.4382,5.4321,5.4374,5.4376,5.4367,5.4491,5.451,5.4603,5.4451,5.4453,5.4455,0,5.4032,5.407,5.4165,5.4196,5.4215,5.4259,5.4299,5.4337,5.4367,5.4371,5.4398,5.4388,5.4443,5.4399,5.4473,5.4431,5.4453,5.4462,5.4466,5.447,5.442,5.4498,5.4633,5.4647,5.4475,5.4473,5.4472,0,5.411,5.4185,5.4251,5.427,5.4307,5.4338,5.4355,5.4382,5.4409,5.4444,5.4461,5.4502,5.4523,5.4554,5.4555,5.4523,5.4631,5.4587,5.4635,5.4635,5.4657,5.4656,5.4797,5.4673,5.4672,5.4672,5.4672,0,5.4217,5.4275,5.4287,5.4328,5.4393,5.4394,5.4458,5.4471,5.4496,5.4538,5.4524,5.4564,5.4563,5.4603,5.4604,5.4666,5.4676,5.468,5.4679,5.4681,5.468,5.4694,5.4688,5.4676,5.4675,5.4674,5.4674,0,5.4314,5.4324,5.4396,5.4427,5.4436,5.4483,5.4508,5.4547,5.4555,5.4609,5.4622,5.4634,5.4681,5.4686,5.4739,5.474,5.4814,5.4807,5.4805,5.4804,5.4851,5.4847,5.5006,5.5027,5.489,5.4891,5.4892,0,5.4381,5.4426,5.4463,5.4492,5.4511,5.4557,5.4585,5.4587,5.4616,5.4655,5.4688,5.4734,5.4771,5.4846,5.4859,5.49,5.4893,5.4946,5.4899,5.4899,5.4893,5.4891,5.4895,5.4955,5.4956,5.4957,5.4958,0,5.4499,5.4503,5.4545,5.459,5.4624,5.4659,5.4691,5.4715,5.472,5.4754,5.4803,5.4832,5.4888,5.4933,5.4974,5.4989,5.4975,5.4974,5.4987,5.4989,5.4986,5.4988,5.483,5.497,5.4968,5.4968,5.4967,5.4967,5.4583,5.4623,5.4656,5.4703,5.4729,5.476,5.4798,5.4813,5.4854,5.4901,5.49,5.4953,5.4982,5.5036,5.5055,5.5096,5.5078,5.5097,5.5102,5.5106,5.5111,5.498,5.5103,5.5103,5.5102,5.5102,5.5102,0,5.47,5.4721,5.4765,5.4813,5.485,5.4836,5.4872,5.4903,5.4952,5.4981,5.5018,5.5075,5.5119,5.5136,5.518,5.5209,5.5204,5.522,5.5218,5.5222,5.5125,5.5109,5.5224,5.5224,5.5224,5.5224,5.5224,5.5224,5.4766,5.4833,5.4841,5.492,5.4939,5.4994,5.5015,5.5044,5.5067,5.5132,5.517,5.5182,5.5206,5.5251,5.5291,5.5295,5.5311,5.5331,5.5332,5.5241,5.5228,5.5216,5.5202,5.5334,5.5334,5.5425,5.5426,5.5426]}]]